Flag for China Weather past 2 weeks in Nanning, Guangxi, China

Now
75 °F

Light rain. Scattered clouds.


Feels Like: 74 °F
Forecast: 73 / 83 °F
Wind: 6 mph from North

Location: Nanning Airport

Current Time: Aug 30, 2015 at 12:10:28 PM

Latest Report: Aug 30, 2015 at 11:00 AM


Visibility: N/A

Pressure: 29.77 "Hg

Humidity: 94%

Dew point: 73 °F

Location of NanningLocation

Historic Weather in Nanning — Graph

°F

Nanning temperature yesterday

Maximum temperature yesterday: 88 °F (at 2:00 PM)
Minimum temperature yesterday: 75 °F (at 11:00 PM)
Average temperature yesterday: 80 °F

Past Weeks' High & Low Weather Summary

 TemperatureHumidityPressure
High97 °F (Aug 24, 4:00 PM)100% (Aug 29, 4:00 PM)29.83 "Hg (Aug 29, 4:00 PM)
Low73 °F (Aug 30, 5:00 AM)32% (Aug 23, 6:00 PM)29.56 "Hg (Aug 22, 3:00 PM)
Average85 °F76%29.69 "Hg
* Reported Aug 15 10:00 AM — Aug 30 10:00 AM, Nanning, Weather by CustomWeather, © 2015

Note: Actual official high and low records may vary slightly from our data, if they occured in-between our weather recording intervals... More about our weather records

Advertising

Nanning weather history for previous 24 hours

 ConditionsComfort  
Time TempWeatherWind HumidityBarometerVisibility
10:00 AM
Sun, Aug 30
75 °FLight rain. Scattered clouds.6 mph94%29.77 "HgN/A
9:00 AM73 °FLight rain. Scattered clouds.6 mph94%29.74 "HgN/A
8:00 AM73 °FLight rain. Scattered clouds.6 mph94%29.74 "Hg4 mi
7:00 AM73 °FLight rain. Scattered clouds.6 mph94%29.71 "HgN/A
6:00 AM73 °FPassing clouds.6 mph94%29.71 "HgN/A
5:00 AM73 °FLight rain. Passing clouds.3 mph94%29.71 "HgN/A
4:00 AM75 °FLight rain. Passing clouds.6 mph94%29.71 "HgN/A
3:00 AM75 °FPassing clouds.3 mph94%29.71 "HgN/A
2:00 AM75 °FPassing clouds.6 mph94%29.71 "HgN/A
1:00 AM75 °FPassing clouds.6 mph94%29.71 "HgN/A
12:00 AM75 °FSprinkles. Passing clouds.6 mph100%29.74 "Hg5 mi
11:00 PM
Sat, Aug 29
75 °FSprinkles. Passing clouds.6 mph100%29.74 "Hg4 mi
10:00 PM77 °FSprinkles. Passing clouds.8 mph94%29.74 "HgN/A
9:00 PM77 °FSprinkles. Passing clouds.3 mph94%29.71 "Hg4 mi
8:00 PM77 °FSprinkles. Passing clouds.6 mph94%29.68 "HgN/A
7:00 PM77 °FSprinkles. Scattered clouds.3 mph94%29.68 "HgN/A
6:00 PM77 °FSprinkles. Scattered clouds.1 mph94%29.65 "HgN/A
5:00 PM77 °FThunderstorms. Broken clouds.6 mph100%29.65 "Hg5 mi
4:00 PM77 °FThunderstorms. Fog.13 mph100%29.62 "Hg1 mi
3:00 PM86 °FScattered clouds.6 mph75%29.65 "HgN/A
2:00 PM88 °FScattered clouds.6 mph70%29.65 "HgN/A
1:00 PM86 °FScattered clouds.3 mph75%29.68 "HgN/A
12:00 PM84 °FScattered clouds.3 mph79%29.71 "HgN/A
Weather by CustomWeather, © 2015

See weather overviewHow to use our weather pages